Dati Storici

Data ora Umidita' aria (%) Temperatura aria (°C) Rad globale (W/m²) Gonioanemometro (°) Tacoanemometro (m/s) Pioggia (mm)
04-11-2012 23:30 97.8 % 13.1 3.114 96.582 0.455 0
04-11-2012 23:20 97.9 % 13.135 3.28 124.888 0.659 0
04-11-2012 23:10 97.9 % 13.114 3.435 20.71 1.022 0
04-11-2012 23:00 97.9 % 13.076 3.576 8.862 0.627 0
04-11-2012 22:50 97.8 % 13.036 3.653 12.663 0.956 0
04-11-2012 22:40 97.8 % 13.038 3.601 17.88 1.074 0
04-11-2012 22:30 97.9 % 13.036 3.473 29.761 1.524 0
04-11-2012 22:20 97.9 % 12.984 3.344 46.341 1.061 0
04-11-2012 22:10 97.8 % 12.986 3.242 19.244 0.975 0
04-11-2012 22:00 97.8 % 12.987 3.217 18.035 0.674 0
04-11-2012 21:50 97.8 % 12.991 3.319 2.297 1.096 0
04-11-2012 21:40 97.8 % 13.005 3.344 20.094 1.871 0
04-11-2012 21:30 97.8 % 12.985 3.229 71.607 1.05 0
04-11-2012 21:20 97.8 % 13.046 3.704 30.733 1.142 0
04-11-2012 21:10 97.9 % 13.038 3.755 20.855 0.917 0
04-11-2012 21:00 97.9 % 13.035 3.794 39.631 0.808 0
04-11-2012 20:50 97.8 % 13.04 3.742 17.376 2.025 0
04-11-2012 20:40 97.8 % 13.057 3.755 43.063 1.479 0
04-11-2012 20:30 97.8 % 13.064 3.678 8.34 1.526 0
04-11-2012 20:20 97.7 % 13.044 3.678 48.562 1.516 0

I dati sono presentati in modo automatico a scopo informativo. In seguito a verifica i dati possono subire modifiche o essere invalidati e non riportati negli archivi definitivi.